Погода в Мелихове

Россия / Калужская область     53°36′06″N   35°35′56″E
темп.,
°C
ветер,
м/с
пор.,
м/с
влажн.,
%
обл.,
%
осадки,
мм/ч
давл.,
гПа
погр.,
м
15 мая, сб
сб1500:00+13ю269684 0.1 1008102
03:00+12ю229632 0.1 100818
06:00+13ю24963 0.0 100892
09:00+17ююз49831 0.6 1008568
12:00+20ююз58565 0.6 10091731
15:00+19ююз597342 2.6 10091322
18:00+17ююз510817 1.4 10091042
21:00+14ююз3119251 1.6 1010460
16 мая, вс
вс1600:00+12ю210976 0.0 1011253
03:00+10ю39975 0.0 1012225
06:00+11ю28945 0.0 1013228
09:00+17ююз46680 0.0 1013804
12:00+20ююз35530 0.0 10131463
15:00+21ю455038 0.0 10131830
18:00+20ю236299 0.0 10131014
21:00+15юв2284100 0.0 101411
17 мая, пн
пн1700:00+13вюв228880 0.0 101314
03:00+12в269143 0.0 101397
06:00+15в4128067 0.0 1012370
09:00+19в5107216 0.0 1011479
12:00+24вюв695465 0.0 1009930
15:00+26вюв6125191 0.0 10071741
18:00+23вюв6136186 0.0 10061882
21:00+19юв5147411 0.0 1006544
18 мая, вт
вт1800:00+17вюв41385100 0.0 1005413
03:00+15юв4129288 0.4 1005362
06:00+15юв4129594 0.0 1004383
09:00+19ю6107997 0.0 1005917
12:00+20ю61067100 0.3 10061400
15:00+20ю5765100 0.6 10061325
18:00+19ю357182 0.1 1006971
21:00+14ююв239599 1.4 100659
19 мая, ср
ср1900:00+13ююв2797100 0.4 1005170
03:00+12ююв2497100 0.4 1004110
06:00+13ююв2498100 0.9 1004201
09:00+14ююз2492100 1.5 1004449
12:00+15з5787100 1.5 1006913
15:00+15зюз578327 3.6 10071043
18:00+16зюз367010 0.7 1008883
21:00+12з2592100 1.5 1010110